Погода в Солдатском

Россия / Белгородская область     50°43′08″N   35°46′47″E
темп.,
°C
ветер,
м/с
пор.,
м/с
влажн.,
%
обл.,
%
осадки,
мм/ч
давл.,
гПа
погр.,
м
24 января, пн
пн2400:00−11ссв5149549 0.0 1028251
03:00−10ссв61694100 0.0 1028320
06:00−9ссв7189055 0.0 1027437
09:00−8ссв7159397 0.1 1028485
12:00−6ссв71393100 0.3 1028495
15:00−6ссв61192100 0.4 1028523
18:00−8ссв5119398 0.0 1028364
21:00−10ссв51194100 0.0 1028259
25 января, вт
вт2500:00−12ссв389679 0.0 1028136
03:00−16ссв369970 0.0 102870
06:00−17ссв359987 0.0 102768
09:00−17св3498100 0.0 102667
12:00−11ссв2393100 0.0 1025158
15:00−9ссз1190100 0.0 1023179
18:00−11сз2296100 0.0 102227
21:00−11з1197100 0.0 102210
26 января, ср
ср2600:00−13зюз1198100 0.0 102111
03:00−16юз22100100 0.0 102015
06:00−16зюз2299100 0.0 101915
09:00−12юз1294100 0.0 101964
12:00−9ююз229091 0.0 1019193
15:00−7зюз2288100 0.0 1019284
18:00−10зюз119771 0.1 102010
21:00−11юз119770 0.2 102011
27 января, чт
чт2700:00−12зюз219876 0.1 102111
03:00−15зсз1110097 0.1 10219
06:00−16з1110098 0.1 10219
09:00−16ю11100100 0.1 102111
12:00−9ююз2395100 0.0 1020144
15:00−7ююз3592100 0.1 1018336
18:00−13ю3410093 0.0 101848
21:00−13ю49100100 0.1 1017124
28 января, пт
пт2800:00−11ю4129795 0.0 1015219
03:00−9ю51295100 0.1 1014300
06:00−7ю61395100 0.2 1011334
09:00−5ю71396100 0.9 1009448
12:00−2ююз71397100 1.4 1007564
15:000юз61299100 2.3 1006633
18:000зюз61198100 0.7 1006820
21:00−1юз6129688 1.2 1006607